GLO1036 SBSP-SBRJ

Flight info

Callsign GLO1036
Flight time 0h 38m
Altitude 27000
Route NIBRU UZ171 KEVUN
Aircraft B738/M-SDE2E3FGHIRWXY/LB1

Departure

Time 2026-05-06 12:48
Airport Congonhas–Deputado Freitas Nobre Airport (SBSP)

Arrival

Time 2026-05-06 13:27
Airport Santos Dumont Airport (SBRJ)
Time Latitude Longitude Altitude Speed Heading
2026-05-06 12:40 -23.62569 -46.65923 2599 ft 0 kts 237°
2026-05-06 12:42 -23.62561 -46.65909 2600 ft 4 kts 251°
2026-05-06 12:42 -23.62560 -46.65883 2600 ft 4 kts 299°
2026-05-06 12:42 -23.62571 -46.65869 2600 ft 0 kts 328°
2026-05-06 12:44 -23.62570 -46.65869 2600 ft 1 kts 328°
2026-05-06 12:44 -23.62556 -46.65877 2600 ft 4 kts 343°
2026-05-06 12:45 -23.62514 -46.65889 2600 ft 10 kts 353°
2026-05-06 12:45 -23.62446 -46.65908 2600 ft 10 kts 330°
2026-05-06 12:45 -23.62328 -46.65988 2599 ft 10 kts 328°
2026-05-06 12:46 -23.62271 -46.66027 2599 ft 10 kts 328°
2026-05-06 12:46 -23.62213 -46.66059 2591 ft 9 kts 333°
2026-05-06 12:46 -23.62160 -46.66097 2598 ft 9 kts 326°
2026-05-06 12:46 -23.62106 -46.66132 2590 ft 9 kts 338°
2026-05-06 12:47 -23.62042 -46.66120 2594 ft 11 kts 45°
2026-05-06 12:47 -23.62070 -46.66056 2591 ft 11 kts 149°
2026-05-06 12:47 -23.62256 -46.65933 2599 ft 67 kts 146°
2026-05-06 12:47 -23.62869 -46.65506 2607 ft 140 kts 147°
2026-05-06 12:48 -23.63810 -46.64848 2942 ft 173 kts 146°
2026-05-06 12:48 -23.64808 -46.64128 3852 ft 174 kts 140°
2026-05-06 12:48 -23.65494 -46.63046 4625 ft 182 kts 114°
2026-05-06 12:48 -23.66090 -46.61704 4934 ft 213 kts 115°
2026-05-06 12:49 -23.66793 -46.60168 5214 ft 237 kts 116°
2026-05-06 12:49 -23.67585 -46.58480 5489 ft 262 kts 116°
2026-05-06 12:49 -23.68448 -46.56684 6208 ft 269 kts 117°
2026-05-06 12:49 -23.69329 -46.54880 7158 ft 270 kts 117°
2026-05-06 12:50 -23.70223 -46.53060 8017 ft 274 kts 117°
2026-05-06 12:50 -23.71133 -46.51209 8854 ft 279 kts 117°
2026-05-06 12:50 -23.71864 -46.49237 9663 ft 283 kts 97°
2026-05-06 12:50 -23.71857 -46.47089 10425 ft 290 kts 83°
2026-05-06 12:51 -23.71569 -46.44813 10646 ft 316 kts 81°
2026-05-06 12:51 -23.71194 -46.42355 10910 ft 338 kts 80°
2026-05-06 12:51 -23.70794 -46.39789 11484 ft 347 kts 81°
2026-05-06 12:51 -23.70397 -46.37181 12190 ft 351 kts 81°
2026-05-06 12:52 -23.70005 -46.34542 12938 ft 353 kts 82°
2026-05-06 12:52 -23.69616 -46.31873 13620 ft 358 kts 82°
2026-05-06 12:52 -23.69227 -46.29167 14227 ft 364 kts 82°
2026-05-06 12:52 -23.68834 -46.26426 14832 ft 368 kts 82°
2026-05-06 12:53 -23.68438 -46.23654 15422 ft 372 kts 82°
2026-05-06 12:53 -23.68036 -46.20845 15980 ft 377 kts 82°
2026-05-06 12:53 -23.67628 -46.17996 16575 ft 381 kts 82°
2026-05-06 12:53 -23.67221 -46.15161 17153 ft 385 kts 82°
2026-05-06 12:54 -23.66798 -46.12218 17716 ft 390 kts 82°
2026-05-06 12:54 -23.66381 -46.09317 18278 ft 395 kts 82°
2026-05-06 12:54 -23.65954 -46.06342 18799 ft 399 kts 82°
2026-05-06 12:54 -23.65522 -46.03339 19293 ft 402 kts 82°
2026-05-06 12:55 -23.65087 -46.00313 19803 ft 406 kts 82°
2026-05-06 12:55 -23.64646 -45.97254 20317 ft 409 kts 82°
2026-05-06 12:55 -23.64202 -45.94176 20813 ft 413 kts 82°
2026-05-06 12:55 -23.63753 -45.91068 21320 ft 416 kts 82°
2026-05-06 12:56 -23.63299 -45.87936 21826 ft 420 kts 82°
2026-05-06 12:56 -23.62842 -45.84779 22315 ft 423 kts 82°
2026-05-06 12:56 -23.62379 -45.81591 22799 ft 427 kts 82°
2026-05-06 12:56 -23.61913 -45.78383 23277 ft 431 kts 82°
2026-05-06 12:57 -23.61441 -45.75141 23753 ft 434 kts 82°
2026-05-06 12:57 -23.60966 -45.71883 24152 ft 437 kts 82°
2026-05-06 12:57 -23.60487 -45.68605 24536 ft 439 kts 82°
2026-05-06 12:57 -23.60004 -45.65302 24918 ft 442 kts 82°
2026-05-06 12:58 -23.59519 -45.61988 25416 ft 442 kts 82°
2026-05-06 12:58 -23.59034 -45.58690 26006 ft 440 kts 83°
2026-05-06 12:58 -23.58552 -45.55407 26595 ft 438 kts 83°
2026-05-06 12:58 -23.58071 -45.52135 27114 ft 437 kts 83°
2026-05-06 12:59 -23.57587 -45.48841 27214 ft 443 kts 83°
2026-05-06 12:59 -23.57067 -45.45497 27228 ft 453 kts 81°
2026-05-06 12:59 -23.56405 -45.42099 27239 ft 463 kts 79°
2026-05-06 12:59 -23.55660 -45.38652 27224 ft 471 kts 78°
2026-05-06 13:00 -23.54885 -45.35174 27224 ft 474 kts 78°
2026-05-06 13:00 -23.54111 -45.31687 27210 ft 473 kts 78°
2026-05-06 13:00 -23.53357 -45.28236 27227 ft 472 kts 78°
2026-05-06 13:00 -23.52607 -45.24755 27215 ft 472 kts 79°
2026-05-06 13:01 -23.51872 -45.21313 27207 ft 458 kts 79°
2026-05-06 13:01 -23.51176 -45.18054 27192 ft 442 kts 79°
2026-05-06 13:01 -23.50494 -45.14847 27118 ft 428 kts 79°
2026-05-06 13:01 -23.49828 -45.11720 26793 ft 421 kts 79°
2026-05-06 13:02 -23.49171 -45.08630 26393 ft 418 kts 78°
2026-05-06 13:02 -23.48517 -45.05564 25987 ft 414 kts 78°
2026-05-06 13:02 -23.47866 -45.02516 25570 ft 411 kts 78°
2026-05-06 13:02 -23.47224 -44.99514 25157 ft 408 kts 78°
2026-05-06 13:03 -23.46580 -44.96509 24740 ft 406 kts 78°
2026-05-06 13:03 -23.45936 -44.93526 24355 ft 403 kts 77°
2026-05-06 13:03 -23.45294 -44.90618 23990 ft 399 kts 77°
2026-05-06 13:03 -23.44644 -44.87698 23555 ft 397 kts 77°
2026-05-06 13:04 -23.43996 -44.84795 23098 ft 394 kts 77°
2026-05-06 13:04 -23.43581 -44.82932 22788 ft 392 kts 77°
2026-05-06 13:04 -23.43156 -44.81028 22520 ft 390 kts 77°
2026-05-06 13:04 -23.42519 -44.78169 22111 ft 387 kts 77°
2026-05-06 13:05 -23.41885 -44.75324 21685 ft 384 kts 77°
2026-05-06 13:05 -23.41257 -44.72507 21278 ft 382 kts 77°
2026-05-06 13:05 -23.40632 -44.69702 20873 ft 379 kts 77°
2026-05-06 13:05 -23.40011 -44.66922 20460 ft 377 kts 77°
2026-05-06 13:06 -23.39395 -44.64161 20070 ft 374 kts 77°
2026-05-06 13:06 -23.38781 -44.61414 19675 ft 372 kts 77°
2026-05-06 13:06 -23.38169 -44.58680 19270 ft 371 kts 77°
2026-05-06 13:06 -23.37560 -44.55957 18865 ft 369 kts 77°
2026-05-06 13:07 -23.36952 -44.53245 18452 ft 368 kts 77°
2026-05-06 13:07 -23.36355 -44.50582 18013 ft 366 kts 77°
2026-05-06 13:07 -23.35753 -44.47896 17612 ft 363 kts 77°
2026-05-06 13:07 -23.35156 -44.45237 17215 ft 360 kts 77°
2026-05-06 13:08 -23.34559 -44.42601 16811 ft 358 kts 76°
2026-05-06 13:08 -23.33741 -44.40056 16457 ft 355 kts 68°
2026-05-06 13:08 -23.32707 -44.37630 16075 ft 352 kts 65°
2026-05-06 13:08 -23.31623 -44.35246 15701 ft 349 kts 64°
2026-05-06 13:09 -23.30550 -44.32885 15345 ft 346 kts 64°
2026-05-06 13:09 -23.29499 -44.30535 14971 ft 344 kts 65°
2026-05-06 13:09 -23.28469 -44.28195 14604 ft 342 kts 65°
2026-05-06 13:09 -23.27453 -44.25862 14224 ft 340 kts 65°
2026-05-06 13:10 -23.26447 -44.23535 13813 ft 339 kts 65°
2026-05-06 13:10 -23.25451 -44.21226 13355 ft 338 kts 65°
2026-05-06 13:10 -23.24472 -44.18953 12989 ft 334 kts 65°
2026-05-06 13:10 -23.23490 -44.16675 12602 ft 331 kts 65°
2026-05-06 13:11 -23.22504 -44.14386 12225 ft 329 kts 65°
2026-05-06 13:11 -23.21548 -44.12170 11848 ft 326 kts 65°
2026-05-06 13:11 -23.20588 -44.09947 11488 ft 324 kts 65°
2026-05-06 13:11 -23.19632 -44.07742 11176 ft 320 kts 64°
2026-05-06 13:12 -23.18659 -44.05606 10995 ft 311 kts 64°
2026-05-06 13:12 -23.17693 -44.03520 10832 ft 307 kts 64°
2026-05-06 13:12 -23.16741 -44.01463 10663 ft 301 kts 64°
2026-05-06 13:12 -23.15815 -43.99456 10504 ft 293 kts 64°
2026-05-06 13:13 -23.14946 -43.97479 10346 ft 286 kts 66°
2026-05-06 13:13 -23.14119 -43.95539 10200 ft 279 kts 66°
2026-05-06 13:13 -23.13315 -43.93644 10038 ft 273 kts 66°
2026-05-06 13:13 -23.12524 -43.91781 9898 ft 271 kts 66°
2026-05-06 13:14 -23.11990 -43.90526 9798 ft 271 kts 66°
2026-05-06 13:14 -23.11197 -43.88666 9652 ft 271 kts 66°
2026-05-06 13:14 -23.10413 -43.86829 9512 ft 271 kts 66°
2026-05-06 13:14 -23.09607 -43.84944 9368 ft 272 kts 66°
2026-05-06 13:15 -23.08808 -43.83076 9227 ft 273 kts 66°
2026-05-06 13:15 -23.08017 -43.81228 9083 ft 273 kts 66°
2026-05-06 13:15 -23.07214 -43.79353 8941 ft 274 kts 66°
2026-05-06 13:15 -23.06409 -43.77476 8798 ft 275 kts 66°
2026-05-06 13:16 -23.05602 -43.75593 8643 ft 275 kts 66°
2026-05-06 13:16 -23.04793 -43.73709 8501 ft 273 kts 65°
2026-05-06 13:16 -23.03995 -43.71852 8345 ft 270 kts 65°
2026-05-06 13:16 -23.03208 -43.70020 8189 ft 266 kts 65°
2026-05-06 13:17 -23.02416 -43.68198 7951 ft 267 kts 65°
2026-05-06 13:17 -23.01618 -43.66373 7723 ft 268 kts 65°
2026-05-06 13:17 -23.00819 -43.64550 7490 ft 268 kts 65°
2026-05-06 13:17 -23.00019 -43.62722 7263 ft 267 kts 65°
2026-05-06 13:18 -22.99225 -43.60915 7086 ft 263 kts 65°
2026-05-06 13:18 -22.98444 -43.59140 6915 ft 258 kts 65°
2026-05-06 13:18 -22.97672 -43.57384 6766 ft 257 kts 65°
2026-05-06 13:18 -22.96904 -43.55635 6589 ft 256 kts 65°
2026-05-06 13:19 -22.96127 -43.53868 6303 ft 262 kts 65°
2026-05-06 13:19 -22.95352 -43.52110 6194 ft 260 kts 65°
2026-05-06 13:19 -22.94569 -43.50320 6137 ft 263 kts 66°
2026-05-06 13:19 -22.93817 -43.48546 6118 ft 252 kts 66°
2026-05-06 13:20 -22.93105 -43.46861 6122 ft 239 kts 66°
2026-05-06 13:20 -22.92428 -43.45260 6112 ft 228 kts 66°
2026-05-06 13:20 -22.91782 -43.43734 6111 ft 218 kts 66°
2026-05-06 13:20 -22.91158 -43.42258 6113 ft 214 kts 66°
2026-05-06 13:21 -22.90531 -43.40777 6129 ft 219 kts 66°
2026-05-06 13:21 -22.89886 -43.39255 6038 ft 227 kts 66°
2026-05-06 13:21 -22.89216 -43.37675 5787 ft 231 kts 66°
2026-05-06 13:21 -22.88544 -43.36082 5359 ft 238 kts 68°
2026-05-06 13:22 -22.88238 -43.34276 4622 ft 249 kts 92°
2026-05-06 13:22 -22.88336 -43.32388 3920 ft 252 kts 92°
2026-05-06 13:22 -22.88415 -43.30543 3725 ft 233 kts 92°
2026-05-06 13:22 -22.88478 -43.28858 3567 ft 214 kts 92°
2026-05-06 13:23 -22.88532 -43.27312 3427 ft 197 kts 91°
2026-05-06 13:23 -22.88715 -43.25835 2894 ft 203 kts 109°
2026-05-06 13:23 -22.89276 -43.24400 2292 ft 210 kts 112°
2026-05-06 13:23 -22.89835 -43.22943 1994 ft 204 kts 111°
2026-05-06 13:24 -22.90353 -43.21581 1852 ft 186 kts 114°
2026-05-06 13:24 -22.90990 -43.20482 1815 ft 162 kts 131°
2026-05-06 13:24 -22.91800 -43.19749 1589 ft 147 kts 149°
2026-05-06 13:24 -22.92751 -43.19368 1223 ft 143 kts 166°
2026-05-06 13:25 -22.93714 -43.19244 1045 ft 137 kts 168°
2026-05-06 13:25 -22.94513 -43.18710 794 ft 140 kts 123°
2026-05-06 13:25 -22.94723 -43.17715 604 ft 133 kts 83°
2026-05-06 13:25 -22.94402 -43.16794 626 ft 132 kts 53°
2026-05-06 13:26 -22.93649 -43.16214 466 ft 140 kts 15°
2026-05-06 13:26 -22.92690 -43.16185 228 ft 137 kts 358°
2026-05-06 13:26 -22.91775 -43.16236 81 ft 127 kts 355°
2026-05-06 13:26 -22.90973 -43.16289 22 ft 83 kts 357°
2026-05-06 13:27 -22.90695 -43.16307 28 ft 21 kts 354°
2026-05-06 13:27 -22.90554 -43.16314 23 ft 12 kts 358°
2026-05-06 13:27 -22.90491 -43.16358 24 ft 12 kts 281°
2026-05-06 13:27 -22.90496 -43.16446 22 ft 8 kts 267°
2026-05-06 13:28 -22.90499 -43.16505 21 ft 8 kts 267°
2026-05-06 13:28 -22.90521 -43.16554 21 ft 8 kts 201°
2026-05-06 13:28 -22.90573 -43.16554 22 ft 8 kts 176°
2026-05-06 13:28 -22.90625 -43.16550 21 ft 7 kts 176°
2026-05-06 13:29 -22.90675 -43.16547 21 ft 7 kts 177°
2026-05-06 13:29 -22.90723 -43.16545 21 ft 7 kts 177°
2026-05-06 13:29 -22.90775 -43.16542 22 ft 8 kts 177°
2026-05-06 13:29 -22.90829 -43.16549 21 ft 8 kts 190°
2026-05-06 13:30 -22.90882 -43.16549 21 ft 7 kts 178°
2026-05-06 13:30 -22.90933 -43.16547 22 ft 7 kts 178°
2026-05-06 13:30 -22.90983 -43.16542 21 ft 8 kts 174°
2026-05-06 13:30 -22.91040 -43.16536 21 ft 8 kts 175°
2026-05-06 13:31 -22.91100 -43.16528 21 ft 9 kts 166°
2026-05-06 13:31 -22.91152 -43.16519 21 ft 6 kts 192°
2026-05-06 13:31 -22.91165 -43.16545 21 ft 3 kts 259°
2026-05-06 13:31 -22.91167 -43.16565 21 ft 3 kts 265°
2026-05-06 13:32 -22.91168 -43.16571 21 ft 1 kts 265°
2026-05-06 13:32 -22.91169 -43.16582 21 ft 1 kts 266°
2026-05-06 13:32 -22.91169 -43.16584 21 ft 0 kts 266°